CW3766 Weather Reports


time (UTC)temp
C
wind
direction
speed
KPH
gust
KPH
rain 1hr
cm
rain 24hr
cm
rain mn
cm
humidity
%
barometer
mb
20260504150604 19 208 6.4 19.3 0.00 0.00 0.00 42 1012.5
20260504150104 19 214 6.4 22.5 0.00 0.00 0.00 42 1012.6
20260504141104 17 208 8.0 16.1 0.00 0.00 0.00 46 1012.8
20260504140104 17 164 8.0 14.5 0.00 0.00 0.00 47 1012.8
20260504130602 13 178 4.8 16.1 0.00 0.00 0.00 54 1013.4
20260504100602 8 217 0.0 0.0 0.00 0.00 0.00 74 1014.1
20260504081602 10 182 1.6 4.8 0.00 0.00 0.00 64 1014.3
20260504081102 9 162 1.6 4.8 0.00 0.00 0.00 64 1014.2
20260504050602 6 294 0.0 0.0 0.00 0.00 0.00 87 1014.8
20260504045103 5 294 0.0 0.0 0.00 0.00 0.00 84 1014.8
20260504044602 5 294 0.0 0.0 0.00 0.00 0.00 84 1014.8
20260504044102 5 294 0.0 0.0 0.00 0.00 0.00 84 1014.8
20260504043602 5 294 0.0 0.0 0.00 0.00 0.00 83 1014.8
20260504043102 5 294 0.0 0.0 0.00 0.00 0.00 84 1014.8
20260504042602 5 294 0.0 0.0 0.00 0.00 0.00 83 1014.7
20260504042102 5 294 0.0 0.0 0.00 0.00 0.00 83 1014.7
20260504041603 5 294 0.0 0.0 0.00 0.00 0.00 83 1014.6
20260504041102 5 294 0.0 0.0 0.00 0.00 0.00 84 1014.5
20260504040602 5 294 0.0 0.0 0.00 0.00 0.00 85 1014.6
20260504035602 6 294 0.0 0.0 0.00 0.00 0.00 86 1014.6
20260504034601 6 294 0.0 0.0 0.00 0.00 0.00 85 1014.7
20260504034103 6 294 0.0 0.0 0.00 0.00 0.00 80 1014.7
20260504033103 6 294 0.0 0.0 0.00 0.00 0.00 80 1014.7
20260504032602 6 294 0.0 0.0 0.00 0.00 0.00 79 1014.7
20260504032102 6 294 0.0 0.0 0.00 0.00 0.00 78 1014.5
20260504031603 6 294 0.0 0.0 0.00 0.00 0.00 80 1014.5
20260504031102 6 294 0.0 0.0 0.00 0.00 0.00 80 1014.4
20260504030602 6 294 0.0 0.0 0.00 0.00 0.00 85 1014.4
20260504025602 6 294 0.0 0.0 0.00 0.00 0.00 78 1014.4
20260504025102 6 294 0.0 0.0 0.00 0.00 0.00 78 1014.3
20260504024602 7 294 0.0 0.0 0.00 0.00 0.00 77 1014.3
20260504024102 7 294 0.0 0.0 0.00 0.00 0.00 76 1014.3
20260504023603 7 294 0.0 0.0 0.00 0.00 0.00 79 1014.2
20260504023102 7 294 0.0 0.0 0.00 0.00 0.00 74 1014.1
20260504022602 7 294 0.0 0.0 0.00 0.00 0.00 76 1014.2
20260504022102 7 294 0.0 0.0 0.00 0.00 0.00 72 1014.1
20260504021603 7 294 0.0 0.0 0.00 0.00 0.00 72 1014.0
20260504021102 8 294 0.0 0.0 0.00 0.00 0.00 70 1013.9
20260504020602 8 294 0.0 0.0 0.00 0.00 0.00 70 1013.9
20260504015602 8 294 0.0 0.0 0.00 0.00 0.00 69 1013.8
20260504015102 8 294 0.0 0.0 0.00 0.00 0.00 65 1013.7
20260504013602 9 294 0.0 0.0 0.00 0.00 0.00 64 1013.6
20260504013102 10 294 0.0 0.0 0.00 0.00 0.00 60 1013.4
20260504012602 10 294 0.0 0.0 0.00 0.00 0.00 63 1013.4
20260504012103 10 294 0.0 0.0 0.00 0.00 0.00 56 1013.3
20260504011602 10 294 0.0 0.0 0.00 0.00 0.00 55 1013.3
20260504010602 10 294 0.0 0.0 0.00 0.00 0.00 55 1013.3
20260504005602 11 294 0.0 0.0 0.00 0.00 0.00 52 1013.3
20260504005102 11 294 0.0 0.0 0.00 0.00 0.00 56 1013.2
20260504004602 11 294 0.0 0.0 0.00 0.00 0.00 64 1013.1
20260504004103 12 294 0.0 0.0 0.00 0.00 0.00 47 1013.1
20260504003102 12 294 0.0 0.0 0.00 0.00 0.00 47 1013.0
20260504002603 13 294 0.0 0.0 0.00 0.00 0.00 44 1013.0
20260504002102 13 294 0.0 0.0 0.00 0.00 0.00 41 1012.9
20260504001103 14 294 0.0 0.0 0.00 0.00 0.00 40 1012.9
20260504000603 14 294 0.0 0.0 0.00 0.00 0.00 40 1012.8
20260503234602 15 294 0.0 0.0 0.00 0.00 0.00 39 1012.7
20260503234102 15 294 1.6 3.2 0.00 0.00 0.00 37 1012.7
20260503233602 16 326 0.0 3.2 0.00 0.00 0.00 37 1012.6
20260503233102 16 328 1.6 8.0 0.00 0.00 0.00 35 1012.6
20260503232602 16 320 1.6 4.8 0.00 0.00 0.00 34 1012.6
20260503232102 16 304 3.2 8.0 0.00 0.00 0.00 34 1012.5
20260503231603 16 300 3.2 11.3 0.00 0.00 0.00 32 1012.4
20260503230602 17 329 3.2 9.7 0.00 0.00 0.00 33 1012.3
20260503225102 17 330 1.6 11.3 0.00 0.00 0.00 31 1012.3
20260503224602 18 311 3.2 11.3 0.00 0.00 0.00 31 1012.3
20260503224103 17 328 3.2 8.0 0.00 0.00 0.00 31 1012.3
20260503223602 17 19 1.6 8.0 0.00 0.00 0.00 30 1012.3
20260503223102 17 290 6.4 12.9 0.00 0.00 0.00 30 1012.4
20260503222603 17 277 6.4 14.5 0.00 0.00 0.00 30 1012.4
20260503222102 17 338 4.8 11.3 0.00 0.00 0.00 30 1012.4
20260503221102 17 291 4.8 12.9 0.00 0.00 0.00 31 1012.4
20260503220602 17 255 4.8 12.9 0.00 0.00 0.00 31 1012.5
20260503215602 17 337 6.4 16.1 0.00 0.00 0.00 31 1012.4
20260503214602 17 266 3.2 8.0 0.00 0.00 0.00 30 1012.5
20260503214102 17 223 4.8 11.3 0.00 0.00 0.00 31 1012.5
20260503213602 17 294 6.4 12.9 0.00 0.00 0.00 30 1012.6
20260503212603 17 285 3.2 16.1 0.00 0.00 0.00 32 1012.7
20260503212102 17 319 6.4 14.5 0.00 0.00 0.00 31 1012.6
20260503211603 17 337 4.8 14.5 0.00 0.00 0.00 31 1012.6
20260503211103 17 256 4.8 14.5 0.00 0.00 0.00 31 1012.6
20260503205602 17 254 4.8 14.5 0.00 0.00 0.00 32 1012.6
20260503204603 17 321 8.0 14.5 0.00 0.00 0.00 31 1012.9
20260503204102 17 272 4.8 16.1 0.00 0.00 0.00 32 1012.8
20260503203602 17 308 4.8 12.9 0.00 0.00 0.00 32 1012.9
20260503203102 17 267 3.2 11.3 0.00 0.00 0.00 34 1012.8
20260503202603 16 7 4.8 14.5 0.00 0.00 0.00 32 1012.9
20260503202103 16 286 4.8 14.5 0.00 0.00 0.00 32 1013.0
20260503201603 16 253 4.8 14.5 0.00 0.00 0.00 32 1013.0
20260503200603 16 310 9.7 22.5 0.00 0.00 0.00 33 1013.1
20260503195603 16 263 4.8 25.7 0.00 0.00 0.00 33 1013.4
20260503195102 16 296 3.2 19.3 0.00 0.00 0.00 34 1013.4
20260503194602 15 280 8.0 16.1 0.00 0.00 0.00 34 1013.6
20260503194103 15 289 4.8 19.3 0.00 0.00 0.00 35 1013.6
20260503193603 15 314 4.8 19.3 0.00 0.00 0.00 36 1013.7
20260503193103 15 285 6.4 19.3 0.00 0.00 0.00 36 1013.8
20260503192603 15 230 4.8 19.3 0.00 0.00 0.00 35 1014.0
20260503192103 15 267 4.8 22.5 0.00 0.00 0.00 37 1014.0
20260503191602 15 279 6.4 22.5 0.00 0.00 0.00 36 1014.1
20260503191102 15 316 4.8 16.1 0.00 0.00 0.00 36 1014.2
20260503190603 15 280 4.8 16.1 0.00 0.00 0.00 36 1014.1
20260503185602 16 30 4.8 20.9 0.00 0.00 0.00 35 1014.2
20260503184603 15 275 3.2 9.7 0.00 0.00 0.00 36 1014.3
20260503182103 15 285 8.0 20.9 0.00 0.00 0.00 37 1014.6
20260503181103 14 303 3.2 16.1 0.00 0.00 0.00 38 1014.6
20260503175603 13 22 6.4 19.3 0.00 0.00 0.00 39 1014.8
20260503175103 13 286 6.4 14.5 0.00 0.00 0.00 40 1014.9
20260503174602 14 250 6.4 12.9 0.00 0.00 0.00 39 1015.0
20260503174102 14 332 4.8 11.3 0.00 0.00 0.00 38 1015.0
20260503173603 13 352 4.8 12.9 0.00 0.00 0.00 40 1015.1
20260503173103 13 340 8.0 20.9 0.00 0.00 0.00 40 1015.1
20260503172602 13 305 6.4 16.1 0.00 0.00 0.00 39 1015.1
20260503171603 13 295 4.8 11.3 0.00 0.00 0.00 40 1015.2
20260503171103 13 0 4.8 14.5 0.00 0.00 0.00 41 1015.2
20260503170603 13 286 6.4 12.9 0.00 0.00 0.00 39 1015.3